THORAD AGENA D DEB, 4650

Orbit data source: Space-Track

THORAD AGENA D DEB, 4650 is space debris in SSO originally from a launch on Wed, 08 Apr 1970 UTC launched from the Air Force Western Test Range (AFWTR). Debris objects in space refer to the collection of defunct objects orbiting the Earth. Examples of debris include non-operational satellites, rocket bodies, and fragments generated from explosions, collisions, or faulty payload assembly.

Loading next visibility...
THORAD AGENA D DEB details
Identifier
4650, 1970-025AJ
Orbit
SSO
Last TLE update13 hours ago
Origin
Flag of USGSFC (US)
ManufacturerUnknown
MissionSpacecraft
Bus & MotorUnknown
MassUnknown
Launch date (UTC)
1970-04-08 (55 years ago)
Launch vehicleUnknown
Launch site
Air Force Western Test Range (AFWTR)
Object type
Payload
Rocket body
Debris
Shape & HBRUnknown
Radar Cross SectionSmall (<0.1 m²)

Expand to show TLE details & history

TLE from 13 hours ago
0 THORAD AGENA D DEB
1  4650U 70025AJ  25024.06624962  .00002285  00000-0  12534-2 0  9991
2  4650  99.8399  99.3202 0115805  46.8017 314.2754 14.09612857786320
Epoch: 2025-01-24T01:35Z
Definitive object data (Epoch: 2025-01-24T01:35:23.967Z)
Latitude0.00002°
Longitude-48.16442°
Altitude805.53 km
Speed7.48 km/s
True Right ascension06h 37m 16s
True Declination0° 00' 00"
Sunlit
Object was in full shadow at TLE epoch
Visualization TLE readout
Latitude-78.4181°
Longitude75.09074°
Altitude953.787 km
Speed7.341 km/s
Apparent Right ascension04h 31m 30s
Apparent Declination-72° 35' 00"
Sunlit
Object is in daylight
Visualization observer readout
Local Sidereal Time16:01:54
Azimuth184.073° SSW
Elevation-57.13°
Doppler factor1
Orbital elements
Apogee altitude941.723 km
Perigee altitude774.129 km
Semi-major axis7,236.063 km
Eccentricity0.0115805
Inclination99.8399°
RAAN99.3202°
Arg. of periapsis46.8017°
True anomaly313.31561°
Mean anomaly314.2754°
Eccentric anomaly313.79647°
Mean motion3.52606 °/min
BSTAR0.0012534
Orbital period102.1 mins
Loading maneuver chart data...

THORAD AGENA D DEB Visibility forecast

Observer location: undefined°, undefined

Span
Click to sort rows by Start time (UTC) header in descending order
Start Az.
Max El. time (UTC)
Max El. Az.
Max El.
End time (UTC)
End Az.
10 mins2025-01-24 17:29:40.937Z24.939° NE2025-01-24 17:34:40.937Z112.117° ESE40.174°2025-01-24 17:39:40.937Z180.69° SSW
6 mins2025-01-24 19:12:40.937Z327.187° NNW2025-01-24 19:14:40.937Z300.296° NW18.859°2025-01-24 19:18:40.937Z253.71° W
8 mins2025-01-25 04:58:40.937Z175.908° S2025-01-25 05:01:40.937Z239.047° WSW43.222°2025-01-25 05:06:40.937Z340.094° N
|